Location: Kerguer�zec
(48.4509°N, 4.7600°W)
Time: 00:58:01
(UTC+00:00)

Meteor 2-10 Rocket - Pass Details

Date: 09 April 2020
Orbit: 734 x 884 km, 81.2° (Epoch: 30 May)

Event Time Altitude Azimuth Distance (km) Brightness Sun altitude
Exits shadow 22:14:54 49° 235° (SW) 1,021 4.0 -27.2°
Maximum altitude 22:16:04 61° 285° (WNW) 905 3.9 -27.3°
Drops below altitude 10° 22:21:30 10° 6° (N) 2,431 6.7 -27.8°
Sets 22:24:00 0° 10° (N) 3,392 7.5 -28.0°
